PulseSat

PulseSat

BD-20

Last updated on Jan. 16, 2019, 2:57 a.m. UTC

1 40938U 15053A   19015.23176872 -.00000133  00000-0  00000+0 0  9997
2 40938  53.3897 290.1386 0045992 178.8198 183.3145  1.00258836 12192
UTC
Height (km)
Latitude
Longitude
Inclination
Orbital Period

Next 30 passes for location: Hong Kong

Rise time Rise Azimuth (degrees) Set time Set Azimuth (degrees) Duration Max altitude (degrees)

No matching passes for this satellites

PulseSat

PulseSat is the new satellites software and hardware trackering solution by Pulsely.
Satellite Two Line Element Set source: US Air Force Space Command

Download PulseSat for iOS
© 2017 Pulsely Limited